Marfa, TX

3:20 AM CST on February 10, 2016 (GMT -0600)
Marfa Municipal

Weather History for KMRF - June, 2012

Change the Weather History Date:

Sunday, June 24, 2012

  Actual Average Record
Temperature  
Mean Temperature 74 °F -  
Max Temperature 91 °F 85 °F 100 °F (2011)
Min Temperature 57 °F 59 °F 53 °F (2005)
Cooling Degree Days 9    
Growing Degree Days 24 (Base 50)    
Moisture  
Dew Point 46 °F    
Average Humidity 38    
Maximum Humidity 63    
Minimum Humidity 20    
Precipitation  
Precipitation 0.00 in - - ()
Sea Level Pressure  
Sea Level Pressure 30.14 in    
Wind  
Wind Speed 3 mph (ESE)    
Max Wind Speed 15 mph    
Max Gust Speed 22 mph    
Visibility 10 miles    
Events      
Averages and records for this station are not official NWS values.
T = Trace of Precipitation, MM = Missing Value Source: NWS Daily Summary

Daily Weather History Graph

Daily Weather History Graph

Search for Another Location

Airport or City:

Trip Planner

Search our weather history database for the weather conditions in past years. The results will help you decide how hot, cold, wet, or windy it might be!

Date:

Astronomy

Jun. 24, 2012 Rise Set
Actual Time 6:55 AM CDT 9:01 PM CDT
Civil Twilight 6:27 AM CDT 9:29 PM CDT
Nautical Twilight 5:54 AM CDT 10:02 PM CDT
Astronomical Twilight 5:18 AM CDT 10:38 PM CDT
Moon 11:42 AM CDT (6/24) No Moon Set
Length of Visible Light 15h 01m
Length of Day
14h 06m
Waxing Crescent, 25% of the Moon is Illuminated
Jun 24
Waxing Crescent
Jun 26
First Quarter
Jul 3
Full
Jul 10
Last Quarter
Jul 18
New

Hourly Weather History & Observations

Time (CDT) Temp. Dew Point Humidity Pressure Visibility Wind Dir Wind Speed Gust Speed Precip Events Conditions
12:15 AM 71.6 °F 46.4 °F 41% 30.11 in 10.0 mi East 10.4 mph - N/A   Clear
12:35 AM 71.6 °F 48.2 °F 43% 30.12 in 10.0 mi East 9.2 mph - N/A   Clear
12:55 AM 69.8 °F 46.4 °F 43% 30.12 in 10.0 mi Calm Calm - N/A   Clear
1:15 AM 68.0 °F 46.4 °F 46% 30.13 in 10.0 mi Calm Calm - N/A   Clear
1:35 AM 69.8 °F 48.2 °F 46% 30.13 in 10.0 mi Calm Calm - N/A   Clear
1:55 AM 71.6 °F 48.2 °F 43% 30.12 in 10.0 mi Calm Calm - N/A   Clear
2:15 AM 68.0 °F 46.4 °F 46% 30.12 in 10.0 mi Calm Calm - N/A   Clear
2:35 AM 66.2 °F 46.4 °F 49% 30.12 in 10.0 mi Calm Calm - N/A   Clear
3:15 AM 62.6 °F 44.6 °F 52% 30.11 in 10.0 mi Calm Calm - N/A   Clear
3:35 AM 62.6 °F 42.8 °F 48% 30.11 in 10.0 mi Calm Calm - N/A   Clear
3:55 AM 62.6 °F 44.6 °F 52% 30.11 in 10.0 mi Calm Calm - N/A   Clear
4:15 AM 60.8 °F 44.6 °F 55% 30.10 in 10.0 mi Calm Calm - N/A   Clear
4:35 AM 60.8 °F 44.6 °F 55% 30.11 in 10.0 mi Calm Calm - N/A   Clear
4:55 AM 59.0 °F 42.8 °F 55% 30.11 in 10.0 mi Calm Calm - N/A   Clear
5:15 AM 59.0 °F 42.8 °F 55% 30.11 in 10.0 mi Calm Calm - N/A   Clear
5:35 AM 57.2 °F 42.8 °F 59% 30.11 in 10.0 mi Calm Calm - N/A   Clear
5:55 AM 57.2 °F 44.6 °F 63% 30.12 in 10.0 mi Calm Calm - N/A   Clear
6:15 AM 59.0 °F 44.6 °F 59% 30.13 in 10.0 mi Calm Calm - N/A   Clear
6:35 AM 59.0 °F 44.6 °F 59% 30.13 in 10.0 mi Calm Calm - N/A   Clear
6:55 AM 59.0 °F 44.6 °F 59% 30.14 in 10.0 mi Calm Calm - N/A   Clear
7:15 AM 59.0 °F 44.6 °F 59% 30.14 in 10.0 mi Calm Calm - N/A   Clear
7:35 AM 59.0 °F 44.6 °F 59% 30.15 in 10.0 mi Calm Calm - N/A   Clear
7:55 AM 62.6 °F 46.4 °F 55% 30.16 in 10.0 mi Calm Calm - N/A   Clear
8:15 AM 66.2 °F 48.2 °F 52% 30.17 in 10.0 mi Calm Calm - N/A   Clear
8:35 AM 69.8 °F 50.0 °F 49% 30.18 in 10.0 mi Calm Calm - N/A   Clear
8:55 AM 71.6 °F 51.8 °F 50% 30.18 in 10.0 mi Calm Calm - N/A   Clear
9:15 AM 73.4 °F 51.8 °F 47% 30.18 in 10.0 mi Calm Calm - N/A   Clear
9:35 AM 73.4 °F 51.8 °F 47% 30.19 in 10.0 mi Calm Calm - N/A   Clear
9:55 AM 75.2 °F 50.0 °F 41% 30.19 in 10.0 mi Calm Calm - N/A   Clear
10:15 AM 75.2 °F 50.0 °F 41% 30.19 in 10.0 mi Calm Calm - N/A   Clear
10:35 AM 78.8 °F 50.0 °F 36% 30.19 in 10.0 mi SSW 6.9 mph - N/A   Clear
10:55 AM 77.0 °F 50.0 °F 39% 30.19 in 10.0 mi SE 10.4 mph - N/A   Clear
11:15 AM 78.8 °F 50.0 °F 36% 30.19 in 10.0 mi Calm Calm - N/A   Clear
11:35 AM 80.6 °F 50.0 °F 34% 30.19 in 10.0 mi Calm Calm - N/A   Clear
11:55 AM 80.6 °F 50.0 °F 34% 30.18 in 10.0 mi Calm Calm - N/A   Clear
12:15 PM 80.6 °F 48.2 °F 32% 30.18 in 10.0 mi Calm Calm - N/A   Clear
12:35 PM 82.4 °F 46.4 °F 28% 30.17 in 10.0 mi Calm Calm - N/A   Clear
12:55 PM 82.4 °F 46.4 °F 28% 30.17 in 10.0 mi Calm Calm - N/A   Clear
1:15 PM 84.2 °F 46.4 °F 27% 30.17 in 10.0 mi Calm Calm - N/A   Clear
1:35 PM 84.2 °F 46.4 °F 27% 30.16 in 10.0 mi Calm Calm - N/A   Clear
1:55 PM 84.2 °F 46.4 °F 27% 30.16 in 10.0 mi Calm Calm - N/A   Clear
2:15 PM 87.8 °F 48.2 °F 25% 30.15 in 10.0 mi South 9.2 mph - N/A   Partly Cloudy
2:55 PM 89.6 °F 48.2 °F 24% 30.14 in 10.0 mi Calm Calm - N/A   Clear
3:15 PM 89.6 °F 46.4 °F 22% 30.13 in 10.0 mi Calm Calm - N/A   Clear
3:35 PM 89.6 °F 46.4 °F 22% 30.13 in 10.0 mi Calm Calm - N/A   Partly Cloudy
3:55 PM 89.6 °F 46.4 °F 22% 30.12 in 10.0 mi Calm Calm - N/A   Partly Cloudy
4:15 PM 89.6 °F 46.4 °F 22% 30.11 in 10.0 mi Calm Calm - N/A   Clear
4:35 PM 89.6 °F 44.6 °F 21% 30.11 in 10.0 mi Calm Calm - N/A   Clear
4:55 PM 89.6 °F 44.6 °F 21% 30.11 in 10.0 mi East 9.2 mph - N/A   Partly Cloudy
5:15 PM 91.4 °F 46.4 °F 21% 30.10 in 10.0 mi SSE 9.2 mph - N/A   Clear
5:35 PM 89.6 °F 44.6 °F 21% 30.10 in 10.0 mi Calm Calm - N/A   Clear
5:55 PM 89.6 °F 44.6 °F 21% 30.09 in 10.0 mi Calm Calm - N/A   Clear
6:15 PM 91.4 °F 44.6 °F 20% 30.09 in 10.0 mi ESE 9.2 mph - N/A   Clear
6:35 PM 89.6 °F 44.6 °F 21% 30.09 in 10.0 mi ESE 9.2 mph 21.9 mph N/A   Clear
6:55 PM 89.6 °F 44.6 °F 21% 30.09 in 10.0 mi ENE 9.2 mph - N/A   Clear
7:15 PM 89.6 °F 44.6 °F 21% 30.09 in 10.0 mi NE 9.2 mph - N/A   Clear
7:35 PM 89.6 °F 44.6 °F 21% 30.10 in 10.0 mi ESE 10.4 mph 16.1 mph N/A   Clear
7:55 PM 87.8 °F 42.8 °F 21% 30.10 in 10.0 mi East 15.0 mph 21.9 mph N/A   Clear
8:15 PM 86.0 °F 41.0 °F 20% 30.10 in 10.0 mi ESE 15.0 mph 20.7 mph N/A   Clear
8:35 PM 84.2 °F 39.2 °F 20% 30.11 in 10.0 mi ESE 13.8 mph 18.4 mph N/A   Clear
8:55 PM 82.4 °F 42.8 °F 25% 30.11 in 10.0 mi ESE 12.7 mph - N/A   Clear
9:35 PM 80.6 °F 44.6 °F 28% 30.13 in 10.0 mi ESE 10.4 mph - N/A   Clear
9:55 PM 78.8 °F 44.6 °F 30% 30.13 in 10.0 mi East 10.4 mph - N/A   Clear
10:15 PM 78.8 °F 46.4 °F 32% 30.14 in 10.0 mi East 11.5 mph - N/A   Clear
10:35 PM 77.0 °F 46.4 °F 34% 30.15 in 10.0 mi East 6.9 mph - N/A   Clear
10:55 PM 75.2 °F 46.4 °F 36% 30.15 in 10.0 mi East 6.9 mph - N/A   Clear
11:35 PM 73.4 °F 48.2 °F 41% 30.16 in 10.0 mi East 6.9 mph - N/A   Clear
11:55 PM 71.6 °F 46.4 °F 41% 30.16 in 10.0 mi East 8.1 mph - N/A   Clear